Location: Buena Vista
(37.7110°N, 119.7938°W)
Time: 19:56:32
(UTC+00:00)

Oscar 11 - Visible Passes

Search period start: 10 October 2024 00:00
Search period end: 20 October 2024 00:00
Orbit: 598 x 612 km, 97.7° (Epoch: 10 October)

Date Brightness Start Highest point End Pass type
(mag) Time Alt. Az. Time Alt. Az. Time Alt. Az.
10 Oct 8.5 12:12:49 10° N 12:14:46 24° NNW 12:14:46 24° NNW visible
11 Oct 10.1 10:50:21 10° NE 10:50:38 11° NE 10:50:38 11° NE visible
11 Oct 8.7 12:25:47 10° NNW 12:27:29 20° NNW 12:27:29 20° NNW visible
12 Oct 9.9 11:02:40 10° NE 11:03:21 14° NE 11:03:21 14° NE visible
12 Oct 8.9 12:38:51 10° NNW 12:40:11 16° NW 12:40:11 16° NW visible
13 Oct 9.6 11:15:06 10° NNE 11:16:02 16° NNE 11:16:02 16° NNE visible
13 Oct 9.1 12:52:07 10° NNW 12:52:53 12° NW 12:52:53 12° NW visible
14 Oct 9.4 11:27:39 10° NNE 11:28:43 17° NNE 11:28:43 17° NNE visible
15 Oct 9.3 11:40:16 10° NNE 11:41:23 18° NNE 11:41:23 18° NNE visible
16 Oct 9.2 11:52:58 10° N 11:54:02 17° N 11:54:02 17° N visible
17 Oct 9.2 12:05:44 10° N 12:06:40 16° N 12:06:40 16° N visible
18 Oct 9.2 12:18:34 10° N 12:19:18 14° NNW 12:19:18 14° NNW visible
19 Oct 9.3 12:31:30 10° NNW 12:31:55 12° NNW 12:31:55 12° NNW visible
